Orbital Elements at Epoch 2457408.5 (2016-Jan-21.0) TDB
Reference: JPL K203/14 (heliocentric ecliptic J2000)
Element | Value | Uncertainty (1-sigma) | Units |
e | .5630745112078982 | 4.5186e-08 | |
a | 3.10882988507007 | 6.481e-08 | au |
q | 1.358327017105734 | 1.643e-07 | au |
i | 4.382957683372297 | 8.7788e-06 | deg |
node | 56.69768323440714 | 8.3881e-05 | deg |
peri | 235.8993210774943 | 8.5176e-05 | deg |
M | 52.10488566886495 | 1.1277e-05 | deg |
tp | 2457118.719064191099 (2015-Apr-06.21906419) | 6.9056e-05 | TDB |
period | 2002.137334187473 5.48 | 6.2608e-05 1.714e-07 | d yr |
n | .1798078452725615 | 5.6227e-09 | deg/d |
Q | 4.859332753034406 | 1.013e-07 | au |
|
Additional Model Parameters
Parameter | Value | Uncertainty (1-sigma) |
A1 [EST] | 8.033492841311949E-9 | 3.992E-11 |
A2 [EST] | -7.274216513493459E-10 | 8.659E-12 |
A3 [EST] | -6.437643760745283E-10 | 2.187E-11 |
DT [EST] | 35.76299289646545 | .4866 |
|
| | Orbit Determination Parameters
Additional Information
|